This demonstration page uses our WeatherBlox Daily Observations layout. Learn more.

39.92423, -83.80882

Hourly Observations for September 24, 2018

Temp ( °F °C ) Dew Point ( °F °C ) Humidity (%) Winds ( mph kmh ) Pressure ( in mb ) Visibility ( mi km ) Precip ( " mm )
12:29 am 00:29 Mostly Cloudy 61 16 55 13 83 83 E 6 9 30.15 1021 10 16.0934 0 0
12:56 am 00:56 Cloudy 61 16.1 57 13.9 87 87 E 7 11 30.14 1021 10 16.0934 0 0
1:56 am 01:56 Cloudy 62 16.7 58 14.4 86 86 E 8 13 30.14 1021 10 16.0934 0 0
2:56 am 02:56 Cloudy 62 16.7 58 14.4 86 86 E 7 11 30.13 1020 10 16.0934 0 0
3:28 am 03:28 Cloudy 63 17 57 14 83 83 E 9 15 30.12 1020 10 16.0934 0 0
3:56 am 03:56 Cloudy 62 16.7 59 15 90 90 E 7 11 30.12 1020 10 16.0934 0 0
4:17 am 04:17 Cloudy 63 17 59 15 88 88 E 8 13 30.12 1020 10 16.0934 0 0
4:56 am 04:56 Cloudy 62 16.7 60 15.6 93 93 E 7 11 30.12 1020 10 16.0934 0 0
5:56 am 05:56 Cloudy with Light Rain 61 16.1 61 16.1 100 100 E 7 11 30.12 1020 7 11.26538 0 0.0254
6:56 am 06:56 Cloudy with Light Rain 61 16.1 61 16.1 100 100 E 7 11 30.13 1020 3 4.82802 0 0.0254
7:20 am 07:20 Cloudy with Light Rain 61 16 61 16 100 100 E 6 9 30.15 1021 2.5 4.02335 0.01 0.254
7:37 am 07:37 Cloudy with Rain 61 16 61 16 100 100 ESE 5 7 30.15 1021 1.75 2.816345 0.07 1.778
7:46 am 07:46 Cloudy with Light Rain 61 16 61 16 100 100 ESE 3 6 30.15 1021 2 3.21868 0.07 1.778
7:56 am 07:56 Cloudy with Rain 61 16.1 61 16.1 100 100 ESE 6 9 30.15 1021 2 3.21868 0.09 2.286
8:18 am 08:18 Cloudy with Rain 61 16 61 16 100 100 ESE 8 13 30.15 1021 4 6.43736 0.06 1.524
8:56 am 08:56 Cloudy with Rain 62 16.7 62 16.7 100 100 ESE 9 15 30.15 1021 7 11.26538 0.1 2.54
9:56 am 09:56 Cloudy with Light Rain 63 17.2 63 17.2 100 100 undefined N/A 30.14 1021 10 16.0934 0.04 1.016
10:56 am 10:56 Cloudy with Light Rain 64 17.8 64 17.8 100 100 SE 12 19 30.15 1021 10 16.0934 0.01 0.254
11:56 am 11:56 Cloudy with Light Rain 65 18.3 65 18.3 100 100 SE 8 13 30.14 1021 10 16.0934 0.01 0.254
12:56 pm 12:56 Cloudy with Light Rain 66 18.9 66 18.9 100 100 SSE 8 13 30.14 1021 10 16.0934 0.05 1.27
1:56 pm 13:56 Cloudy with Light Rain 68 20 68 20 100 100 SE 8 13 30.12 1020 10 16.0934 0.03 0.762
2:33 pm 14:33 Cloudy with Light Rain 68 20 68 20 100 100 SE 9 15 30.06 1018 10 16.0934 0.03 0.762
2:56 pm 14:56 Cloudy with Rain 68 20 68 20 100 100 SE 10 17 30.08 1019 8 12.87472 0.06 1.524
3:56 pm 15:56 Cloudy with Light Rain 68 20 68 20 100 100 SE 12 19 30.06 1018 10 16.0934 0.06 1.524
4:56 pm 16:56 Cloudy with Heavy Rain 69 20.6 69 20.6 100 100 SSE 12 19 30.06 1018 5 8.0467 0.11 2.794
5:56 pm 17:56 Cloudy with Rain 68 20 68 20 100 100 SSE 10 17 30.06 1018 4 6.43736 0.27 6.858
6:36 pm 18:36 Cloudy with Light Rain 68 20 68 20 100 100 SE 13 20 30.03 1017 7 11.26538 0.14 3.556
6:53 pm 18:53 Cloudy with Light Rain 68 20 68 20 100 100 SSE 10 17 30.03 1017 5 8.0467 0.18 4.572
6:56 pm 18:56 Cloudy with Light Rain 68 20 68 20 100 100 SSE 12 19 30.05 1018 4 6.43736 0.19 4.826
7:56 pm 19:56 Cloudy with Light Rain 67 19.4 67 19.4 100 100 SE 9 15 30.04 1017 5 8.0467 0.06 1.524
8:56 pm 20:56 Cloudy with Light Rain 67 19.4 67 19.4 100 100 SSE 12 19 30.04 1017 6 9.65604 0.03 0.762
9:56 pm 21:56 Cloudy 67 19.4 67 19.4 100 100 S 9 15 30.05 1018 10 16.0934 0.05 1.27
10:23 pm 22:23 Cloudy 66 19 66 19 100 100 S 12 19 30.03 1017 10 16.0934 0.02 0.508
10:56 pm 22:56 Cloudy 67 19.4 67 19.4 100 100 S 9 15 30.05 1018 10 16.0934 0.03 0.762
11:56 pm 23:56 Cloudy 68 20 68 20 100 100 S 8 13 30.06 1018 10 16.0934 0.01 0.254

Powered by AerisWeather